#timestamp,LO_Frequency,Hit,StdDev 
1658516415.9,286046993.4,N
1658516435.7,286046993.3,N
1658516455.6,286046996.3,N
1658516475.4,286046994.8,N
1658516495.2,286046993.5,N
1658516515.1,286046996.3,N
1658516516.0,286046996.3,N
1658516535.8,286046997.9,N
1658516555.6,286046997.6,N
1658516575.5,286046996.9,N
1658516595.3,286046996.6,N
1658516615.2,286046995.1,N
1658516635.9,286046994.9,N
1658516655.7,286046995.3,N
1658516675.6,286046997.1,N
1658516695.4,286046994.9,N
1658516715.2,286046997.1,N
1658516735.1,286046996.8,N
1658516736.0,286046996.8,N
1658516755.8,286046999.2,N
1658516775.7,286046998.2,N
1658516795.5,286047000.8,N
1658516815.3,286046998.7,N
1658516835.2,286047000.7,N
1658516855.0,286047000.7,N
1658516855.9,286047000.7,N
1658516875.7,286046998.2,N
1658516895.6,286046999.0,N
1658516915.4,286047000.2,N
1658516935.3,286047000.0,N
1658516955.1,286046998.3,N
1658516975.8,286046999.4,N
1658516995.7,286046999.1,N
1658517015.5,286047000.8,N
1658517035.4,286046998.2,N
1658517055.2,286047000.7,N
1658517075.0,286046999.8,N
1658517075.9,286046999.8,N
1658517095.8,286047000.7,N
1658517115.6,286047002.8,N
1658517135.5,286047002.6,N
1658517155.3,286047001.8,N
1658517175.1,286047002.5,N
1658517195.9,286047002.4,N
1658517215.7,286047002.3,N
1658517235.5,286047001.7,N
1658517255.4,286047002.4,N
1658517275.2,286047000.5,N
1658517295.1,286047000.9,N
1658517296.0,286047000.9,N
1658517315.8,286046999.8,N
1658517335.6,286047000.0,N
1658517355.5,286046999.8,N
1658517375.3,286047000.4,N
1658517395.1,286047000.2,N
1658517415.9,286047002.6,N
1658517435.7,286047002.7,N
1658517455.6,286047002.0,N
1658517475.4,286047002.4,N
1658517495.2,286047001.8,N
1658517515.1,286047002.0,N
1658517516.0,286047002.0,N
1658517535.8,286047002.2,N
1658517555.6,286047000.9,N
1658517575.5,286046998.4,N
1658517595.3,286047000.4,N
1658517615.2,286047002.3,N
1658517635.9,286047002.6,N
1658517655.7,286047000.3,N
1658517675.6,286047001.5,N
1658517695.4,286047001.7,N
1658517715.3,286047001.7,N
1658517735.1,286046999.9,N
1658517736.0,286046999.9,N
1658517755.8,286046999.8,N
1658517775.7,286047000.7,N
1658517795.5,286047000.0,N
1658517815.3,286046999.8,N
1658517835.2,286047000.6,N
1658517855.0,286047000.6,N
1658517855.9,286047000.6,N
1658517875.8,286046998.2,N
1658517895.6,286046999.9,N
1658517915.4,286046998.5,N
1658517935.3,286047001.1,N
1658517955.1,286047000.6,N
1658517975.8,286047000.7,N
1658517995.7,286047001.1,N
1658518015.5,286046998.2,N
1658518035.4,286046998.2,N
1658518055.2,286046999.0,N
1658518075.0,286046999.5,N
1658518075.9,286046999.5,N
1658518095.8,286046996.6,N
1658518115.6,286046999.2,N
1658518135.5,286046998.6,N
1658518155.3,286046998.5,N
1658518175.1,286046998.6,N
1658518195.9,286047000.4,N
1658518215.7,286047000.3,N
1658518235.5,286047000.8,N
1658518255.4,286046998.5,N
1658518275.2,286046999.4,N
1658518295.0,286046999.2,N
1658518296.0,286046999.2,N
1658518315.8,286046998.2,N
1658518335.6,286047000.6,N
1658518355.5,286046998.2,N
1658518375.3,286047000.7,N
1658518395.1,286046998.7,N
1658518415.9,286046998.8,N
1658518435.7,286047000.1,N
1658518455.6,286047000.7,N
1658518475.4,286047000.9,N
1658518495.2,286046999.0,N
1658518515.1,286047000.8,N
1658518516.0,286047000.8,N
1658518535.8,286047000.4,N
1658518555.6,286047000.2,N
1658518575.5,286046998.4,N
1658518595.3,286046998.7,N
1658518615.2,286047001.2,N
1658518635.9,286047002.4,N
1658518655.7,286047002.4,N
1658518675.6,286047000.0,N
1658518695.4,286046999.9,N
1658518715.2,286046999.8,N
1658518735.1,286047001.7,N
1658518736.0,286047001.7,N
1658518755.8,286047002.0,N
1658518775.7,286047001.5,N
1658518795.5,286047001.9,N
1658518815.3,286047001.8,N
1658518835.2,286047004.4,Y
1658518855.0,286047002.0,P
1658518855.9,286047002.0,N
1658518875.8,286047002.3,N
1658518895.6,286047002.2,N
1658518915.4,286047002.5,Y
1658518935.3,286046998.7,P
1658518955.1,286047000.8,N
1658518975.9,286047001.0,N
1658518995.7,286047000.7,N
1658519015.5,286046998.7,N
1658519035.4,286047001.1,N
1658519055.2,286046996.5,Y
1658519075.0,286046999.0,P
1658519075.9,286046999.0,N
1658519095.8,286046997.9,P
1658519115.6,286046996.9,Y
1658519135.5,286046998.9,P
1658519155.3,286046999.1,P
1658519175.1,286047000.8,P
1658519195.9,286046996.9,Y
1658519215.7,286046999.4,P
1658519235.6,286046998.7,P
1658519255.4,286046998.2,P
1658519275.2,286046998.7,N
1658519295.1,286046998.8,N
1658519296.0,286046998.8,N
1658519315.8,286046999.0,N
1658519335.6,286046999.2,N
1658519355.5,286046996.9,Y
1658519375.3,286046999.0,P
1658519395.2,286047000.4,P
1658519415.9,286047001.2,N
1658519435.7,286046998.5,N
1658519455.6,286047000.8,N
1658519475.4,286046998.8,N
1658519495.2,286046998.1,N
1658519515.1,286046998.5,N
1658519516.0,286046998.5,N
1658519535.8,286047000.3,N
1658519555.7,286047002.3,N
1658519575.5,286047002.3,N
1658519595.3,286047002.0,N
1658519615.2,286047004.0,N
1658519635.0,286047001.3,N
1658519635.9,286047001.3,N
1658519655.7,286047002.2,N
1658519675.6,286047002.0,N
1658519695.4,286047002.2,N
1658519715.3,286047001.7,N
1658519735.1,286047001.4,N
1658519736.0,286047001.4,N
1658519755.8,286047000.9,N
1658519775.7,286046998.4,N
1658519795.5,286047000.5,N
1658519815.4,286046998.3,N
1658519835.2,286047000.6,N
1658519855.0,286047001.0,N
1658519855.9,286047001.0,N
1658519875.8,286046999.3,N
1658519895.6,286047000.5,N
1658519915.4,286046996.8,N
1658519935.3,286047001.1,N
1658519955.1,286047000.8,N
1658519975.9,286047000.2,N
1658519995.7,286047002.6,N
